Volver al catálogo

FENGYUN 1C DEB

ActivoSSO
NORAD 30903·DEBRIS·🇨🇳 China

Lanzado May 10, 1999 desde Taiyuan Satellite Launch Center

Loading…

Próximos Pases (próximas 24 horas)

TLE

EnvejeciendoSource: Space-Track

Época: Sep 6, 2026, 22:37 UTC

1 30903U 99025AYR 26249.94267594  .00000151  00000-0  13378-3 0  9991
2 30903  99.3382 145.5434 0096990  83.1876 278.0310 13.97713615724516

Sigue FENGYUN 1C DEB en tiempo real con AllMySat

Download on the App Store